Temp
82 80 84 85 84 84 84 82 79 80 76 75 75 74 74 74 74 74 75 75 74 75 75 76 78 75 75 77 78 77 77 76 75
83 80 84 85 85 85 84 80 78 79 77 76 76 76 74 74 74 76 76 77 76 77 80 78 75 75 74 73 75 76 77 77 76
80 81 83 84 84 84 85 83 81 79 78 76 76 77 77 76 74 74 76 75 75 76 78 78 73 72 72 72 75 78 78 76 76
80 81 83 84 84 84 83 83 80 79 78 78 77 78 78 76 76 75 76 75 75 76 77 77 76 73 73 75 77 77 76 76 76
82 82 81 83 83 84 82 81 80 79 79 78 78 79 78 78 78 77 76 75 75 76 76 76 76 76 76 76 77 77 76 75 77
78 81 80 81 80 81 81 80 79 78 78 79 79 78 78 79 77 78 77 77 76 76 76 76 76 76 75 75 76 76 76 76 75
77 73 79 79 79 78 79 79 79 78 79 79 79 77 78 76 79 78 79 77 77 78 76 76 75 76 76 75 76 76 75 76 75
74 79 76 78 79 75 78 77 79 79 79 78 80 78 76 77 76 78 76 76 77 77 78 78 76 76 76 76 77 79 76 76 76
75 77 79 81 80 79 77 79 79 80 80 78 80 77 78 76 76 76 78 76 76 76 76 76 76 76 75 75 80 76 73 75 75
73 74 78 80 79 80 78 78 79 77 77 77 76 76 76 77 77 76 76 76 76 76 75 76 76 76 76 75 75 72 71 70 69
68 69 68 76 82 82 80 80 79 76 76 76 75 75 76 76 76 76 76 76 76 76 76 75 74 73 73 73 76 69 69 69 69
67 66 68 67 82 84 82 81 80 79 76 75 75 75 75 76 76 76 75 75 75 74 74 72 73 73 73 73 73 69 67 65 69
69 67 67 68 86 85 82 79 81 79 75 75 74 75 76 76 76 74 71 70 70 71 69 69 70 69 69 69 70 68 65 64 70
71 74 70 75 78 85 83 82 81 77 76 74 75 74 72 72 71 70 69 68 67 67 67 66 66 67 68 69 68 70 64 62 68
67 65 70 67 66 81 82 81 81 76 73 73 73 72 71 69 69 70 68 66 65 65 65 64 63 62 63 64 66 64 62 59 59
72 66 67 69 75 78 80 78 75 71 70 71 71 70 68 67 67 66 65 64 64 62 61 60 59 59 60 61 66 64 61 58 58
69 76 75 76 78 76 72 72 72 71 71 70 69 68 67 66 65 65 65 64 63 60 58 57 56 56 55 56 59 58 57 57 59
77 76 76 73 72 71 70 71 69 70 70 70 68 67 66 65 64 64 63 59 59 59 56 55 55 54 53 54 55 57 51 49 54
74 74 74 71 70 71 70 70 69 70 70 69 67 65 67 67 66 64 64 59 56 51 52 49 47 48 50 55 51 48 46 44 44
73 74 75 73 72 72 70 69 69 69 70 69 68 66 67 66 67 66 69 62 60 57 52 48 46 44 44 45 47 45 44 44 44
MSLP
1002.07 1002.97 1003.40 1004.37 1005.26 1006.10 1007.15 1008.36 1009.52 1010.22 1011.08 1011.74 1012.30 1012.70 1013.01 1013.37 1013.68 1014.03 1014.29 1014.56 1014.75 1014.99 1015.34 1015.19 1014.83 1014.98 1015.02 1015.30 1015.60 1015.57 1015.54 1016.14 1016.13
1001.48 1002.50 1003.09 1004.14 1004.99 1005.92 1006.79 1007.96 1008.93 1009.60 1010.62 1011.33 1011.88 1012.25 1012.71 1013.12 1013.41 1013.75 1014.01 1014.17 1014.38 1014.63 1014.76 1014.65 1014.72 1014.50 1014.52 1015.07 1015.30 1015.32 1015.51 1015.71 1015.89
1001.72 1002.34 1003.35 1004.25 1005.03 1005.84 1006.58 1007.22 1008.30 1009.26 1010.06 1010.73 1011.30 1011.77 1012.28 1012.76 1013.16 1013.55 1013.81 1014.06 1014.25 1014.28 1014.27 1014.43 1014.73 1014.64 1014.70 1014.87 1014.99 1015.18 1015.19 1015.44 1015.65
1002.39 1002.60 1003.29 1004.12 1004.99 1005.80 1006.43 1007.07 1007.90 1008.83 1009.65 1010.29 1010.89 1011.27 1011.78 1012.34 1012.75 1013.01 1013.39 1013.70 1013.93 1014.05 1014.07 1014.24 1014.52 1014.87 1014.91 1014.75 1014.59 1014.67 1014.98 1015.22 1015.36
1002.70 1002.95 1003.39 1004.17 1004.85 1005.50 1006.35 1007.17 1007.78 1008.36 1009.02 1009.79 1010.37 1010.86 1011.38 1011.86 1012.34 1012.57 1012.88 1013.21 1013.43 1013.68 1013.78 1013.91 1014.11 1014.31 1014.58 1014.58 1014.51 1014.56 1014.73 1014.92 1014.99
1003.49 1003.20 1003.23 1003.82 1004.61 1005.39 1006.17 1006.93 1007.56 1008.15 1008.63 1009.17 1009.79 1010.32 1010.95 1011.40 1011.85 1012.02 1012.29 1012.58 1012.89 1013.12 1013.33 1013.50 1013.74 1013.98 1014.12 1014.21 1014.30 1014.34 1014.35 1014.42 1014.55
1003.46 1004.33 1003.65 1004.17 1004.77 1005.00 1005.65 1006.59 1007.25 1007.81 1008.27 1008.71 1009.25 1009.86 1010.38 1010.82 1011.12 1011.26 1011.47 1011.89 1012.26 1012.55 1012.76 1013.01 1013.23 1013.42 1013.58 1013.72 1013.81 1013.84 1013.95 1013.86 1013.95
1004.07 1004.34 1004.88 1004.33 1004.93 1005.33 1005.51 1006.17 1006.83 1007.33 1007.78 1008.21 1008.75 1009.29 1009.76 1010.12 1010.44 1010.67 1011.07 1011.35 1011.64 1011.89 1012.12 1012.33 1012.56 1012.77 1012.88 1013.01 1013.18 1013.25 1013.28 1013.32 1013.34
1003.78 1003.94 1004.48 1004.56 1004.87 1005.19 1005.47 1005.79 1006.29 1006.76 1007.22 1007.73 1008.19 1008.67 1009.11 1009.52 1009.97 1010.34 1010.65 1010.96 1011.21 1011.39 1011.59 1011.78 1011.97 1012.21 1012.45 1012.63 1012.65 1012.64 1012.73 1012.73 1012.79
1005.51 1006.04 1005.70 1004.25 1004.47 1004.66 1004.98 1005.38 1005.70 1006.20 1006.72 1007.29 1007.78 1008.16 1008.67 1009.18 1009.62 1010.00 1010.33 1010.60 1010.93 1011.21 1011.41 1011.45 1011.64 1011.74 1011.91 1011.98 1011.96 1012.04 1012.10 1012.33 1012.67
1005.44 1005.78 1005.72 1006.22 1003.70 1003.96 1004.19 1004.64 1005.31 1005.74 1006.29 1006.92 1007.55 1008.06 1008.48 1008.95 1009.42 1009.83 1010.15 1010.46 1010.79 1010.97 1011.12 1011.31 1011.48 1011.65 1011.60 1011.68 1011.51 1011.53 1011.49 1011.60 1011.88
1004.08 1004.80 1005.41 1006.31 1004.52 1003.30 1003.62 1004.08 1004.49 1005.28 1006.10 1006.74 1007.40 1008.03 1008.59 1009.04 1009.38 1009.74 1010.06 1010.29 1010.55 1010.79 1011.01 1011.13 1011.38 1011.36 1011.46 1011.49 1011.43 1011.22 1011.13 1011.29 1011.50
1003.92 1004.81 1006.67 1006.00 1004.30 1002.48 1002.93 1003.54 1004.15 1004.93 1005.81 1006.61 1007.53 1008.06 1008.54 1008.94 1009.39 1009.65 1010.28 1010.68 1010.66 1010.98 1011.42 1011.70 1011.80 1011.75 1011.59 1011.38 1011.24 1011.12 1010.96 1010.87 1010.96
1006.26 1006.52 1006.85 1004.98 1003.54 1001.85 1002.11 1002.93 1004.08 1005.01 1005.71 1006.56 1007.25 1007.87 1008.58 1009.16 1009.48 1010.01 1010.37 1010.84 1011.16 1011.43 1011.70 1011.85 1012.06 1012.00 1011.65 1011.37 1011.08 1010.82 1010.66 1010.49 1010.55
1003.59 1001.53 1003.06 1005.97 1005.51 1002.00 1001.73 1002.44 1003.87 1004.77 1005.55 1006.16 1006.96 1007.80 1008.52 1009.21 1009.68 1010.11 1010.61 1011.00 1011.47 1011.66 1011.92 1012.03 1012.16 1012.13 1011.93 1011.66 1011.32 1011.09 1010.77 1010.35 1010.20
1002.09 1002.03 1003.59 1003.30 1005.08 1002.63 1002.60 1002.60 1003.59 1004.74 1005.77 1006.22 1007.10 1007.77 1008.51 1009.25 1009.92 1010.33 1010.85 1011.34 1011.75 1012.25 1012.48 1012.72 1012.80 1012.72 1012.35 1011.85 1011.52 1011.34 1011.04 1010.73 1010.38
1002.17 1001.47 1001.82 1002.55 1002.15 1002.41 1002.97 1003.16 1003.89 1004.96 1006.27 1007.05 1007.29 1008.19 1008.75 1009.33 1009.93 1010.50 1011.02 1011.43 1011.88 1012.49 1012.82 1012.94 1013.01 1013.00 1012.81 1012.44 1012.05 1011.69 1011.43 1011.21 1010.81
1000.46 1001.41 1001.84 1001.82 1001.97 1002.73 1002.91 1003.58 1004.69 1006.11 1006.67 1007.01 1007.77 1008.42 1009.11 1009.62 1010.01 1010.37 1011.05 1011.76 1012.19 1012.43 1012.80 1012.90 1012.96 1013.07 1013.05 1012.81 1012.26 1011.75 1011.62 1011.53 1010.97
1000.95 1001.24 1001.44 1001.73 1002.03 1002.45 1003.69 1004.41 1005.63 1006.37 1006.77 1007.24 1008.04 1008.70 1009.15 1009.59 1010.00 1010.26 1010.72 1011.44 1012.19 1012.30 1012.49 1012.91 1013.08 1013.06 1012.96 1012.50 1012.21 1011.66 1011.31 1010.90 1010.49
1001.80 1000.61 1000.11 1001.33 1002.32 1002.30 1003.15 1004.54 1005.69 1006.17 1006.69 1007.32 1008.01 1008.63 1008.81 1009.20 1009.62 1009.83 1010.21 1011.05 1011.58 1012.13 1012.95 1013.04 1013.03 1012.81 1012.54 1012.33 1011.74 1011.25 1010.82 1010.33 1009.95
Wind_Speed
15 9 14 17 15 16 14 20 19 17 15 12 11 9 8 7 7 4 4 5 3 4 4 5 4 4 1 3 2 4 4 3 3
12 11 16 16 18 16 13 14 19 18 16 12 12 11 7 7 7 6 5 7 4 4 5 2 4 7 5 4 5 5 4 4 3
12 10 14 15 16 16 13 13 15 16 16 15 14 11 9 6 6 6 5 4 4 5 5 4 6 5 4 5 6 5 3 2 3
8 8 15 15 15 15 13 13 13 15 15 14 13 11 10 9 8 7 7 6 6 5 4 4 6 7 7 7 5 5 3 5 5
9 10 10 13 13 14 13 14 11 14 13 12 12 11 10 10 9 9 7 6 7 6 6 5 5 5 5 5 6 6 6 6 5
3 10 9 13 10 13 13 13 11 11 12 11 9 8 10 12 9 11 9 10 8 7 7 7 6 6 7 7 6 6 6 7 7
6 5 4 9 9 11 13 13 13 11 11 11 10 8 9 9 12 9 9 7 8 9 7 7 7 7 7 7 7 7 6 7 8
18 16 8 9 11 7 10 11 12 11 11 11 12 10 10 11 8 9 7 7 7 7 9 8 7 7 7 7 7 7 7 7 6
14 8 8 9 11 10 10 13 13 12 12 11 10 9 11 8 8 8 10 8 7 7 7 7 7 7 7 7 6 9 11 9 6
7 5 11 11 11 12 10 12 12 12 11 8 8 7 7 7 7 8 7 7 7 7 6 5 6 6 6 7 7 11 12 8 6
7 8 11 19 13 13 12 11 11 8 8 8 7 7 7 6 6 6 5 4 4 4 4 6 5 5 6 6 7 10 12 8 6
7 7 17 15 14 15 13 13 14 12 9 8 7 6 6 5 6 6 5 6 6 3 1 2 1 3 5 5 6 10 11 4 5
12 17 24 22 24 15 14 9 13 13 10 9 7 7 7 6 5 5 6 5 6 5 2 1 2 4 5 7 6 9 10 7 4
17 16 19 13 16 16 14 12 12 11 11 9 8 9 8 7 7 7 7 6 4 5 4 4 4 5 6 7 7 8 11 11 5
13 18 17 13 17 9 13 15 14 12 9 9 10 10 10 8 8 6 5 7 5 4 5 6 6 6 5 4 6 7 8 9 10
11 21 21 19 31 12 12 12 15 14 9 11 10 10 9 8 8 6 6 6 4 5 5 3 4 4 4 5 6 6 9 11 12
11 8 13 10 15 14 12 11 12 14 9 7 9 9 9 7 7 6 5 4 5 5 3 2 2 3 4 5 6 6 4 6 8
7 6 4 5 9 9 12 12 10 7 7 9 9 8 6 6 6 6 6 5 3 5 2 1 1 1 3 4 6 5 7 8 7
4 9 8 6 9 12 10 11 8 7 7 8 7 7 7 6 6 5 5 5 4 6 7 1 4 4 5 3 9 14 13 14 11
12 5 11 12 10 13 13 10 8 7 8 7 8 6 6 5 7 5 7 6 6 5 2 4 8 10 12 12 13 14 13 11 9
Wind_Direction
207 199 168 168 161 156 157 158 173 172 173 174 179 181 173 180 195 197 205 214 204 205 192 238 233 145 96 280 273 238 243 215 216
141 139 155 154 146 152 153 147 166 167 172 175 176 180 173 183 187 190 197 218 219 226 213 188 155 178 195 233 262 258 233 220 218
121 142 145 144 146 158 160 155 148 162 166 171 178 177 183 180 181 196 212 224 256 231 242 154 175 189 202 245 248 243 197 220 250
140 135 137 149 154 159 155 151 143 160 166 169 176 180 179 182 191 195 206 212 221 252 221 181 167 193 212 222 233 247 223 230 250
148 136 144 153 153 156 154 159 156 160 164 165 177 183 181 189 195 195 199 208 213 219 242 227 203 222 219 235 229 226 229 230 233
116 155 140 142 140 149 156 159 160 159 167 171 174 167 170 190 190 194 199 203 208 209 215 225 225 215 225 231 240 237 227 224 227
48 314 173 146 158 158 153 161 167 168 170 170 174 174 182 179 194 195 201 196 199 211 208 210 215 215 216 215 221 232 240 227 221
168 235 297 149 162 162 158 154 169 170 173 169 180 181 181 195 190 195 191 199 209 206 214 216 211 216 221 218 222 233 236 244 242
178 197 227 176 164 167 159 166 169 174 176 180 176 176 192 187 189 185 197 195 202 213 215 206 213 223 218 225 236 239 231 224 235
29 360 309 167 175 179 176 174 172 174 172 165 173 182 179 179 177 188 189 191 201 217 220 216 228 232 226 236 231 232 239 215 228
82 356 345 318 176 183 183 172 172 159 157 167 171 170 175 173 169 162 163 171 200 226 222 225 234 261 259 262 260 256 259 226 215
96 17 315 309 244 185 179 174 169 161 156 153 151 161 158 158 161 157 180 205 216 230 68 307 251 278 279 270 271 267 261 234 214
111 111 269 287 231 178 172 170 158 152 147 137 139 148 164 163 144 135 91 68 69 64 42 322 296 300 298 293 287 282 274 222 217
150 200 201 251 284 168 163 146 143 134 133 140 151 129 111 107 103 100 98 84 64 55 53 27 354 323 301 288 281 282 264 241 232
81 32 346 38 300 142 135 133 134 135 127 133 124 117 116 110 97 93 81 82 60 40 24 24 360 346 330 318 318 339 343 324 245
140 162 213 197 196 122 127 121 129 123 130 121 123 119 116 109 106 105 115 118 110 79 53 30 333 321 304 309 328 326 350 357 340
248 214 176 157 123 119 103 109 112 120 132 134 116 118 122 125 128 135 144 114 112 109 95 55 10 340 324 322 317 310 347 343 332
122 96 115 119 109 102 106 109 102 114 127 119 124 124 129 135 138 143 132 91 103 125 90 115 108 324 309 304 299 300 311 296 298
177 150 157 137 120 101 102 104 112 117 125 128 136 141 153 169 166 167 148 138 122 38 118 149 309 272 244 264 256 282 293 293 280
289 182 151 133 136 129 129 120 127 141 146 140 149 160 177 159 155 158 147 159 157 166 229 247 265 275 275 255 257 289 289 288 294